• In Latvia
  • List of Countries
  • For 7 days
  • Water Temperature
  • Satellite Maps
  • Weather Map
  • Weather Widgets
  • user-avatar
    Login

    Hourly Weather Serowe

    Today, 21 October, Saturday

    Time Temperature Precipitation Wind Pressure Humidity
    00:00 +23°C° 0.3 mm 6 mps 668 mmHg 61%
    01:00 +23°C° 0.3 mm 6 mps 668 mmHg 63%
    02:00 +22°C° 0 mm 5 mps 668 mmHg 63%
    03:00 +22°C° 0.2 mm 5 mps 668 mmHg 65%
    04:00 +22°C° 0.2 mm 5 mps 668 mmHg 66%
    05:00 +22°C° 0.2 mm 4 mps 668 mmHg 68%
    06:00 +22°C° 0 mm 5 mps 669 mmHg 65%
    07:00 +23°C° 0 mm 5 mps 669 mmHg 63%
    08:00 +23°C° 0 mm 5 mps 670 mmHg 60%
    09:00 +26°C° 0 mm 6 mps 670 mmHg 53%
    10:00 +28°C° 0 mm 6 mps 670 mmHg 46%
    11:00 +30°C° 0 mm 6 mps 671 mmHg 39%
    12:00 +33°C° 0 mm 6 mps 671 mmHg 36%
    13:00 +34°C° 0 mm 6 mps 670 mmHg 32%
    14:00 +35°C° 0 mm 4 mps 670 mmHg 31%
    15:00 +34°C° 0.1 mm 5 mps 670 mmHg 32%
    16:00 +34°C° 0.1 mm 6 mps 670 mmHg 34%
    17:00 +33°C° 0.1 mm 7 mps 670 mmHg 35%
    18:00 +30°C° 1.7 mm 6 mps 670 mmHg 43%
    19:00 +28°C° 1.7 mm 6 mps 670 mmHg 52%
    20:00 +26°C° 1.7 mm 5 mps 670 mmHg 60%
    21:00 +25°C° 0.5 mm 5 mps 671 mmHg 63%
    22:00 +25°C° 0.5 mm 5 mps 671 mmHg 66%
    23:00 +23°C° 0.5 mm 5 mps 671 mmHg 68%

    Tomorrow, 22 October, Sunday

    Time Temperature Precipitation Wind Pressure Humidity
    00:00 +23°C° 0 mm 6 mps 671 mmHg 71%
    01:00 +22°C° 0 mm 6 mps 670 mmHg 74%
    02:00 +22°C° 0 mm 6 mps 670 mmHg 77%
    03:00 +22°C° 0 mm 6 mps 670 mmHg 77%
    04:00 +22°C° 0 mm 7 mps 671 mmHg 77%
    05:00 +21°C° 0 mm 7 mps 671 mmHg 77%
    06:00 +22°C° 0 mm 7 mps 671 mmHg 76%
    07:00 +22°C° 0 mm 7 mps 671 mmHg 75%
    08:00 +22°C° 0 mm 7 mps 672 mmHg 74%
    09:00 +23°C° 0 mm 7 mps 672 mmHg 69%
    10:00 +24°C° 0 mm 7 mps 672 mmHg 65%
    11:00 +26°C° 0 mm 8 mps 672 mmHg 60%
    12:00 +27°C° 0 mm 7 mps 671 mmHg 54%
    13:00 +29°C° 0 mm 6 mps 671 mmHg 48%
    14:00 +30°C° 0 mm 6 mps 670 mmHg 42%
    15:00 +30°C° 0 mm 5 mps 670 mmHg 40%
    16:00 +32°C° 0 mm 5 mps 670 mmHg 39%
    17:00 +32°C° 0 mm 5 mps 669 mmHg 37%
    18:00 +30°C° 0 mm 5 mps 669 mmHg 39%
    19:00 +29°C° 0 mm 4 mps 669 mmHg 41%
    20:00 +28°C° 0 mm 4 mps 669 mmHg 43%
    21:00 +27°C° 0 mm 5 mps 669 mmHg 44%
    22:00 +27°C° 0 mm 5 mps 669 mmHg 45%
    23:00 +26°C° 0 mm 6 mps 669 mmHg 47%

    Day after tomorrow, 23 October, Monday

    Time Temperature Precipitation Wind Pressure Humidity
    00:00 +25°C° 0 mm 5 mps 669 mmHg 49%
    01:00 +25°C° 0 mm 5 mps 669 mmHg 52%
    02:00 +23°C° 0 mm 4 mps 668 mmHg 54%
    03:00 +23°C° 0 mm 4 mps 668 mmHg 55%
    04:00 +23°C° 0 mm 4 mps 669 mmHg 56%
    05:00 +22°C° 0 mm 4 mps 669 mmHg 57%
    06:00 +23°C° 0 mm 5 mps 669 mmHg 52%
    07:00 +24°C° 0 mm 6 mps 670 mmHg 46%
    08:00 +26°C° 0 mm 7 mps 671 mmHg 41%
    09:00 +28°C° 0 mm 6 mps 671 mmHg 36%
    10:00 +30°C° 0 mm 6 mps 671 mmHg 32%
    11:00 +33°C° 0 mm 6 mps 671 mmHg 28%
    12:00 +34°C° 0 mm 5 mps 670 mmHg 26%
    13:00 +34°C° 0 mm 4 mps 669 mmHg 24%
    14:00 +35°C° 0 mm 4 mps 669 mmHg 22%
    15:00 +35°C° 0 mm 4 mps 668 mmHg 22%
    16:00 +35°C° 0 mm 4 mps 668 mmHg 21%
    17:00 +35°C° 0 mm 3 mps 668 mmHg 20%
    18:00 +34°C° 0 mm 4 mps 668 mmHg 22%
    19:00 +32°C° 0 mm 4 mps 668 mmHg 23%
    20:00 +30°C° 0 mm 4 mps 668 mmHg 24%
    21:00 +29°C° 0 mm 4 mps 668 mmHg 25%
    22:00 +29°C° 0 mm 4 mps 668 mmHg 26%
    23:00 +28°C° 0 mm 3 mps 668 mmHg 27%

    24 October, Tuesday

    Time Temperature Precipitation Wind Pressure Humidity
    00:00 +27°C° 0 mm 3 mps 668 mmHg 28%
    01:00 +26°C° 0 mm 3 mps 667 mmHg 30%
    02:00 +26°C° 0 mm 3 mps 667 mmHg 31%
    03:00 +25°C° 0 mm 3 mps 667 mmHg 32%
    04:00 +25°C° 0 mm 3 mps 666 mmHg 33%
    05:00 +24°C° 0 mm 3 mps 666 mmHg 34%
    06:00 +25°C° 0 mm 4 mps 667 mmHg 33%
    07:00 +27°C° 0 mm 5 mps 668 mmHg 32%
    08:00 +28°C° 0 mm 5 mps 669 mmHg 30%
    09:00 +30°C° 0 mm 5 mps 669 mmHg 27%
    10:00 +33°C° 0 mm 4 mps 669 mmHg 23%
    11:00 +35°C° 0 mm 4 mps 669 mmHg 19%
    12:00 +36°C° 0 mm 3 mps 669 mmHg 17%
    13:00 +36°C° 0 mm 3 mps 668 mmHg 15%
    14:00 +37°C° 0 mm 3 mps 667 mmHg 13%
    15:00 +37°C° 0 mm 3 mps 667 mmHg 13%
    16:00 +37°C° 0 mm 3 mps 667 mmHg 13%
    17:00 +37°C° 0 mm 3 mps 666 mmHg 13%
    18:00 +35°C° 0 mm 3 mps 667 mmHg 14%
    19:00 +34°C° 0 mm 3 mps 667 mmHg 16%
    20:00 +33°C° 0 mm 3 mps 667 mmHg 17%
    21:00 +31°C° 0 mm 3 mps 667 mmHg 18%
    22:00 +30°C° 0 mm 3 mps 667 mmHg 18%
    23:00 +29°C° 0 mm 3 mps 667 mmHg 19%

    25 October, Wednesday

    Time Temperature Precipitation Wind Pressure Humidity
    00:00 +29°C° 0 mm 3 mps 667 mmHg 20%
    01:00 +28°C° 0 mm 3 mps 666 mmHg 21%
    02:00 +27°C° 0 mm 3 mps 666 mmHg 21%
    03:00 +27°C° 0 mm 4 mps 666 mmHg 22%
    04:00 +26°C° 0 mm 4 mps 666 mmHg 22%
    05:00 +26°C° 0 mm 4 mps 666 mmHg 23%
    06:00 +27°C° 0 mm 5 mps 666 mmHg 21%
    07:00 +29°C° 0 mm 5 mps 667 mmHg 20%
    08:00 +30°C° 0 mm 6 mps 668 mmHg 18%
    09:00 +33°C° 0 mm 6 mps 668 mmHg 17%
    10:00 +35°C° 0 mm 5 mps 668 mmHg 15%
    11:00 +37°C° 0 mm 5 mps 668 mmHg 13%
    12:00 +38°C° 0 mm 4 mps 667 mmHg 13%
    13:00 +38°C° 0 mm 3 mps 666 mmHg 12%
    14:00 +39°C° 0 mm 2 mps 666 mmHg 11%
    15:00 +39°C° 0 mm 2 mps 665 mmHg 12%
    16:00 +39°C° 0 mm 2 mps 665 mmHg 12%
    17:00 +38°C° 0 mm 2 mps 665 mmHg 12%
    18:00 +37°C° 0 mm 2 mps 665 mmHg 13%
    19:00 +36°C° 0 mm 2 mps 665 mmHg 14%
    20:00 +34°C° 0 mm 3 mps 665 mmHg 15%
    21:00 +33°C° 0 mm 3 mps 665 mmHg 16%
    22:00 +31°C° 0 mm 3 mps 665 mmHg 16%
    23:00 +31°C° 0 mm 3 mps 665 mmHg 17%

    26 October, Thursday

    Time Temperature Precipitation Wind Pressure Humidity
    00:00 +30°C° 0 mm 3 mps 664 mmHg 17%
    01:00 +29°C° 0 mm 3 mps 664 mmHg 17%
    02:00 +29°C° 0 mm 3 mps 664 mmHg 17%
    03:00 +28°C° 0 mm 3 mps 664 mmHg 17%
    04:00 +28°C° 0 mm 3 mps 663 mmHg 18%
    05:00 +27°C° 0 mm 2 mps 663 mmHg 19%
    06:00 +29°C° 0 mm 2 mps 664 mmHg 18%
    07:00 +30°C° 0 mm 2 mps 665 mmHg 18%
    08:00 +32°C° 0 mm 2 mps 665 mmHg 18%
    09:00 +35°C° 0 mm 3 mps 665 mmHg 16%
    10:00 +37°C° 0 mm 4 mps 665 mmHg 15%
    11:00 +40°C° 0 mm 5 mps 665 mmHg 13%
    12:00 +41°C° 0 mm 5 mps 665 mmHg 13%
    13:00 +41°C° 0 mm 5 mps 664 mmHg 13%
    14:00 +42°C° 0 mm 5 mps 664 mmHg 12%
    15:00 +40°C° 0 mm 6 mps 663 mmHg 15%
    16:00 +39°C° 0 mm 6 mps 663 mmHg 17%
    17:00 +38°C° 0 mm 7 mps 663 mmHg 19%
    18:00 +36°C° 0 mm 5 mps 663 mmHg 21%
    19:00 +35°C° 0 mm 4 mps 663 mmHg 22%
    20:00 +34°C° 0 mm 3 mps 663 mmHg 23%
    21:00 +34°C° 0.2 mm 3 mps 663 mmHg 25%
    22:00 +33°C° 0.2 mm 3 mps 663 mmHg 26%
    23:00 +32°C° 0.2 mm 4 mps 663 mmHg 27%
    Show more